KM4RT-13 Weather Reports


time (UTC)temp
C
wind
direction
speed
KPH
gust
KPH
rain 1hr
cm
rain 24hr
cm
rain mn
cm
humidity
%
barometer
mb
20260906122823 25 131 3.2 3.2 0.00 0.00 0.00 92 1010.9
20260906122318 24 131 3.2 3.2 0.00 0.00 0.00 94 1010.7
20260906121816 23 112 4.8 4.8 0.00 0.00 0.00 99 1011.0
20260906121311 23 112 3.2 4.8 0.00 0.00 0.00 99 1011.1
20260906120807 23 113 3.2 3.2 0.00 0.00 0.00 99 1011.0
20260906120303 23 108 3.2 3.2 0.00 0.00 0.00 99 1010.8
20260906115759 23 105 1.6 3.2 0.00 0.00 0.00 99 1010.8
20260906115254 23 31 0.0 0.0 0.00 0.00 0.00 99 1010.5
20260906114753 23 21 0.0 1.6 0.00 0.00 0.00 99 1010.5
20260906114248 23 355 0.0 0.0 0.00 0.00 0.00 99 1010.3
20260906113744 23 340 1.6 1.6 0.00 0.00 0.00 99 1010.3
20260906113243 23 355 0.0 0.0 0.00 0.00 0.00 99 1010.1
20260906112737 23 330 0.0 0.0 0.00 0.00 0.00 99 1010.1
20260906112233 23 337 0.0 1.6 0.00 0.00 0.00 99 1010.1
20260906111733 23 37 0.0 0.0 0.00 0.00 0.00 99 1010.1
20260906111228 23 37 0.0 0.0 0.00 0.00 0.00 99 1009.7
20260906110722 23 37 0.0 0.0 0.00 0.00 0.00 99 1009.5
20260906110212 23 37 1.6 1.6 0.00 0.00 0.00 99 1009.5
20260906105706 23 31 1.6 1.6 0.00 0.00 0.00 99 1009.3
20260906105202 23 25 3.2 4.8 0.00 0.00 0.00 99 1009.2
20260906104701 23 16 1.6 1.6 0.00 0.00 0.00 99 1009.4
20260906104200 23 5 1.6 1.6 0.00 0.00 0.00 99 1009.2
20260906103658 24 4 0.0 0.0 0.00 0.00 0.00 99 1009.3
20260906103153 24 9 0.0 1.6 0.00 0.00 0.00 99 1009.3
20260906102648 24 2 0.0 0.0 0.00 0.00 0.00 99 1009.2
20260906102143 24 2 0.0 0.0 0.00 0.00 0.00 99 1009.3
20260906101642 24 1 0.0 0.0 0.00 0.00 0.00 99 1009.4
20260906101137 24 349 0.0 0.0 0.00 0.00 0.00 99 1009.3
20260906100633 24 18 0.0 0.0 0.00 0.00 0.00 99 1009.2
20260906100127 24 348 0.0 0.0 0.00 0.00 0.00 99 1009.2
20260906095622 24 5 0.0 0.0 0.00 0.00 0.00 99 1009.4
20260906095118 24 5 0.0 0.0 0.00 0.00 0.00 99 1009.4
20260906094617 24 5 0.0 0.0 0.00 0.00 0.00 99 1009.3
20260906094113 24 5 0.0 0.0 0.00 0.00 0.00 99 1009.7
20260906093609 24 5 0.0 0.0 0.00 0.00 0.00 99 1009.5
20260906093103 24 4 0.0 0.0 0.00 0.00 0.00 99 1009.5
20260906092558 24 4 0.0 0.0 0.00 0.00 0.00 99 1009.4
20260906092053 24 21 0.0 0.0 0.00 0.00 0.00 99 1009.3
20260906091549 24 21 1.6 1.6 0.00 0.00 0.00 99 1009.3
20260906091045 24 15 0.0 1.6 0.00 0.00 0.00 99 1009.3
20260906090545 24 18 4.8 4.8 0.00 0.00 0.00 99 1009.4
20260906090040 24 9 1.6 1.6 0.00 0.00 0.00 99 1009.3
20260906085539 24 208 0.0 0.0 0.00 0.00 0.00 99 1009.3
20260906085038 24 208 0.0 0.0 0.00 0.00 0.00 99 1009.3
20260906084533 24 208 0.0 0.0 0.00 0.00 0.00 99 1009.3
20260906084032 24 208 0.0 0.0 0.00 0.00 0.00 99 1009.2
20260906083528 24 208 0.0 1.6 0.00 0.00 0.00 99 1009.0
20260906083028 24 244 0.0 1.6 0.00 0.00 0.00 99 1009.0
20260906082523 24 244 0.0 0.0 0.00 0.00 0.00 99 1009.2
20260906082019 24 208 3.2 4.8 0.00 0.00 0.00 99 1008.9
20260906081514 24 156 0.0 0.0 0.00 0.00 0.00 99 1009.1
20260906081010 24 181 1.6 1.6 0.00 0.00 0.00 99 1009.1
20260906080506 24 328 0.0 0.0 0.00 0.00 0.00 99 1009.1
20260906080002 24 341 0.0 0.0 0.00 0.00 0.00 99 1008.9
20260906075456 24 355 0.0 0.0 0.00 0.00 0.00 99 1009.1
20260906074950 24 77 0.0 0.0 0.00 0.00 0.00 99 1008.9
20260906074445 24 110 0.0 0.0 0.00 0.00 0.00 99 1009.0
20260906073943 24 110 0.0 0.0 0.00 0.00 0.00 99 1009.1
20260906073439 24 110 0.0 0.0 0.00 0.00 0.00 99 1008.7
20260906072935 24 119 0.0 1.6 0.00 0.00 0.00 99 1009.0
20260906072430 24 166 1.6 1.6 0.00 0.00 0.00 99 1009.1
20260906071926 25 187 3.2 3.2 0.00 0.00 0.00 99 1008.8
20260906071422 25 8 0.0 0.0 0.00 0.00 0.00 99 1008.9
20260906070917 25 8 0.0 0.0 0.00 0.00 0.00 99 1009.0
20260906070407 25 8 0.0 0.0 0.00 0.00 0.00 99 1009.0
20260906065903 25 8 0.0 0.0 0.00 0.00 0.00 99 1008.7
20260906065356 25 8 0.0 0.0 0.00 0.00 0.00 99 1008.8
20260906064852 25 8 0.0 0.0 0.00 0.00 0.00 99 1008.8
20260906064348 25 8 0.0 0.0 0.00 0.00 0.00 99 1009.1
20260906063843 25 8 0.0 0.0 0.00 0.00 0.00 99 1009.0
20260906063338 25 8 0.0 0.0 0.00 0.00 0.00 99 1008.8
20260906062833 25 8 0.0 0.0 0.00 0.00 0.00 99 1009.1
20260906062332 25 8 0.0 0.0 0.00 0.00 0.00 99 1008.9
20260906061828 25 8 0.0 0.0 0.00 0.00 0.00 99 1008.9
20260906061324 25 8 0.0 0.0 0.00 0.00 0.00 99 1009.1
20260906060819 25 8 0.0 0.0 0.00 0.00 0.00 99 1009.2
20260906060317 25 8 0.0 0.0 0.00 0.00 0.00 99 1009.2
20260906055812 25 8 0.0 0.0 0.00 0.00 0.00 99 1009.2
20260906055308 25 8 0.0 0.0 0.00 0.00 0.00 99 1009.3
20260906054803 25 8 0.0 0.0 0.00 0.00 0.00 99 1009.3
20260906054258 25 8 0.0 0.0 0.00 0.00 0.00 99 1009.3
20260906053754 25 8 0.0 0.0 0.00 0.00 0.00 99 1009.3
20260906053250 25 8 0.0 0.0 0.00 0.00 0.00 99 1009.2
20260906052745 25 8 0.0 0.0 0.00 0.00 0.00 99 1009.4
20260906052241 25 8 0.0 0.0 0.00 0.00 0.00 99 1009.5
20260906051738 25 8 0.0 0.0 0.00 0.00 0.00 99 1009.3
20260906051237 25 8 0.0 0.0 0.00 0.00 0.00 99 1009.7
20260906050733 25 8 0.0 0.0 0.00 0.00 0.00 99 1009.4
20260906050227 25 8 0.0 0.0 0.00 0.00 0.00 99 1009.2
20260906045726 25 8 0.0 0.0 0.00 0.56 0.56 99 1009.4
20260906045216 25 8 0.0 1.6 0.00 0.56 0.56 99 1009.3
20260906044711 25 8 1.6 1.6 0.00 0.56 0.56 99 1009.1
20260906044206 25 9 0.0 0.0 0.00 0.56 0.56 99 1009.4
20260906043702 25 9 0.0 1.6 0.00 0.56 0.56 99 1009.2
20260906043157 25 9 0.0 1.6 0.00 0.56 0.56 99 1009.3
20260906042651 25 9 0.0 0.0 0.00 0.56 0.56 99 1009.1
20260906042145 25 9 0.0 0.0 0.00 0.56 0.56 99 1009.3
20260906041641 25 8 0.0 0.0 0.00 0.56 0.56 99 1009.2
20260906041136 26 8 0.0 0.0 0.00 0.56 0.56 98 1009.1
20260906040631 26 9 1.6 3.2 0.00 0.56 0.56 97 1009.2
20260906040127 26 351 1.6 1.6 0.00 0.56 0.56 96 1009.2
20260906035622 26 349 0.0 0.0 0.00 0.56 0.56 96 1009.0
20260906035117 26 349 0.0 0.0 0.00 0.56 0.56 96 1009.3
20260906034612 26 349 0.0 0.0 0.00 0.56 0.56 96 1009.3
20260906034106 26 349 0.0 0.0 0.00 0.56 0.56 97 1009.0
20260906033601 26 349 0.0 0.0 0.00 0.56 0.56 97 1009.1
20260906033057 26 349 0.0 0.0 0.00 0.56 0.56 96 1009.3
20260906032554 26 349 0.0 0.0 0.00 0.56 0.56 96 1009.4
20260906032048 26 349 0.0 0.0 0.00 0.56 0.56 96 1009.4
20260906031544 26 349 0.0 0.0 0.00 0.56 0.56 96 1009.2
20260906031039 26 349 0.0 0.0 0.00 0.56 0.56 95 1009.2
20260906030538 26 349 0.0 0.0 0.00 0.56 0.56 94 1009.1
20260906030037 26 349 0.0 0.0 0.00 0.56 0.56 94 1009.2
20260906025532 26 349 0.0 0.0 0.00 0.56 0.56 93 1009.2
20260906025030 26 349 0.0 0.0 0.00 0.56 0.56 92 1009.2
20260906024525 26 349 0.0 0.0 0.00 0.56 0.56 92 1009.3
20260906024020 26 349 0.0 0.0 0.00 0.56 0.56 93 1009.1
20260906023516 27 349 0.0 0.0 0.00 0.56 0.56 94 1009.4
20260906023010 27 349 0.0 0.0 0.00 0.56 0.56 94 1009.2
20260906022506 26 349 0.0 1.6 0.00 0.56 0.56 94 1009.2
20260906021955 26 349 1.6 1.6 0.00 0.56 0.56 92 1009.0
20260906021450 27 351 0.0 0.0 0.00 0.56 0.56 92 1008.9
20260906020944 27 351 0.0 0.0 0.00 0.56 0.56 91 1009.0
20260906020438 27 349 0.0 0.0 0.00 0.56 0.56 89 1009.0
20260906015933 27 348 0.0 0.0 0.00 0.56 0.56 89 1008.8
20260906015427 27 348 0.0 1.6 0.00 0.56 0.56 89 1008.7
20260906014927 27 348 1.6 1.6 0.00 0.56 0.56 89 1008.8
20260906014427 27 349 0.0 0.0 0.00 0.56 0.56 91 1008.5
20260906013923 27 349 0.0 0.0 0.00 0.56 0.56 90 1008.7
20260906013418 27 349 0.0 0.0 0.00 0.56 0.56 89 1008.8
20260906012914 28 349 0.0 0.0 0.00 0.56 0.56 91 1008.6
20260906012408 28 349 0.0 0.0 0.00 0.56 0.56 89 1008.5
20260906011908 28 349 0.0 0.0 0.00 0.56 0.56 87 1008.6
20260906011403 28 349 0.0 0.0 0.00 0.56 0.56 90 1008.7
20260906010858 28 349 0.0 0.0 0.00 0.56 0.56 90 1008.2
20260906010354 28 349 0.0 0.0 0.00 0.56 0.56 88 1008.5
20260906005850 28 348 0.0 0.0 0.00 0.56 0.56 88 1008.4
20260906005349 28 348 1.6 1.6 0.00 0.56 0.56 88 1008.1
20260906004848 28 350 0.0 0.0 0.00 0.56 0.56 90 1008.2
20260906004348 29 350 0.0 0.0 0.00 0.56 0.56 89 1008.2
20260906003843 29 350 0.0 0.0 0.00 0.56 0.56 87 1008.3
20260906003338 29 350 0.0 0.0 0.00 0.56 0.56 86 1008.1
20260906002834 30 350 0.0 0.0 0.00 0.56 0.56 86 1008.0
20260906002333 30 346 1.6 1.6 0.00 0.56 0.56 85 1008.2
20260906001829 30 334 0.0 0.0 0.00 0.56 0.56 82 1008.1
20260906001324 30 334 0.0 0.0 0.00 0.56 0.56 78 1008.4
20260906000819 30 334 0.0 0.0 0.00 0.56 0.56 80 1008.1
20260906000314 31 324 1.6 1.6 0.00 0.56 0.56 81 1008.1
20260905235809 31 87 0.0 0.0 0.00 0.56 0.56 83 1008.1
20260905235308 31 88 0.0 0.0 0.00 0.56 0.56 80 1008.3
20260905234804 31 88 0.0 1.6 0.00 0.56 0.56 81 1008.2
20260905234259 32 89 1.6 1.6 0.00 0.56 0.56 78 1008.2
20260905233754 32 66 0.0 1.6 0.00 0.56 0.56 81 1008.1
20260905233254 33 334 1.6 1.6 0.00 0.56 0.56 78 1008.2
20260905232753 33 333 1.6 1.6 0.00 0.56 0.56 72 1008.3
20260905232249 33 78 0.0 1.6 0.00 0.56 0.56 72 1008.3
20260905231745 33 79 1.6 1.6 0.00 0.56 0.56 77 1008.5
20260905231240 33 332 1.6 1.6 0.00 0.56 0.56 75 1008.4
20260905230736 33 327 1.6 1.6 0.00 0.56 0.56 71 1008.3
20260905230234 33 308 1.6 1.6 0.00 0.56 0.56 70 1008.2
20260905225733 33 317 1.6 1.6 0.00 0.56 0.56 71 1008.3
20260905225229 33 201 3.2 3.2 0.00 0.56 0.56 70 1008.3
20260905224728 33 187 3.2 4.8 0.00 0.56 0.56 67 1008.4
20260905224223 34 241 1.6 3.2 0.00 0.56 0.56 66 1008.4
20260905223719 33 334 1.6 1.6 0.00 0.56 0.56 73 1008.5
20260905223216 33 269 1.6 1.6 0.00 0.56 0.56 73 1008.6
20260905222712 33 238 3.2 3.2 0.00 0.56 0.56 74 1008.5
20260905222211 32 209 3.2 3.2 0.00 0.56 0.56 75 1008.3
20260905221706 32 205 3.2 4.8 0.00 0.56 0.56 74 1008.6
20260905221203 33 202 3.2 3.2 0.00 0.56 0.56 75 1008.4
20260905220659 33 193 1.6 1.6 0.00 0.56 0.56 70 1008.4
20260905220155 32 163 3.2 3.2 0.00 0.56 0.56 72 1008.5
20260905215654 32 311 1.6 1.6 0.00 0.56 0.56 72 1008.6
20260905215150 32 239 1.6 1.6 0.00 0.56 0.56 75 1008.5
20260905214646 31 182 4.8 4.8 0.00 0.56 0.56 76 1008.5
20260905214141 31 205 3.2 3.2 0.00 0.56 0.56 82 1008.6
20260905213637 28 270 3.2 3.2 0.00 0.56 0.56 81 1008.8
20260905213132 28 268 1.6 1.6 0.00 0.56 0.56 89 1008.9
20260905212627 27 308 1.6 1.6 0.00 0.56 0.56 93 1008.8
20260905212126 27 173 3.2 4.8 0.00 0.56 0.56 92 1008.7
20260905211621 26 317 3.2 3.2 0.00 0.56 0.56 92 1008.8
20260905211111 26 358 0.0 1.6 0.00 0.56 0.56 97 1008.8
20260905210608 25 352 1.6 1.6 0.00 0.56 0.56 95 1009.0
20260905205601 25 248 4.8 4.8 0.13 0.56 0.56 90 1009.1
20260905205100 25 184 3.2 4.8 0.13 0.56 0.56 90 1009.4
20260905204555 26 222 8.0 11.3 1.85 0.53 0.53 87 1009.3
20260905204050 24 214 25.7 29.0 3.07 0.51 0.51 82 1010.0
20260905203550 26 186 37.0 40.2 1.37 0.23 0.23 96 1010.3
20260905203045 35 2 9.7 14.5 0.00 0.00 0.00 53 1009.5
20260905202540 35 28 6.4 6.4 0.00 0.00 0.00 51 1009.4
20260905202036 36 32 3.2 6.4 0.00 0.00 0.00 49 1009.3
20260905201532 36 15 0.0 0.0 0.00 0.00 0.00 46 1009.3
20260905201031 36 150 3.2 3.2 0.00 0.00 0.00 48 1009.3
20260905200526 36 23 0.0 1.6 0.00 0.00 0.00 48 1009.7
20260905200020 36 81 4.8 4.8 0.00 0.00 0.00 47 1009.4
20260905195515 36 97 3.2 3.2 0.00 0.00 0.00 49 1009.5
20260905195010 36 37 3.2 4.8 0.00 0.00 0.00 47 1009.7
20260905194509 36 128 4.8 4.8 0.00 0.00 0.00 47 1009.4
20260905194004 38 138 6.4 12.9 0.00 0.00 0.00 46 1009.7
20260905193504 37 154 4.8 4.8 0.00 0.00 0.00 46 1010.0
20260905192959 37 136 6.4 6.4 0.00 0.00 0.00 47 1009.9
20260905192455 38 36 3.2 4.8 0.00 0.00 0.00 46 1009.9
20260905191951 37 72 0.0 1.6 0.00 0.00 0.00 47 1010.1
20260905191449 36 163 6.4 6.4 0.00 0.00 0.00 46 1010.1
20260905190943 36 141 3.2 3.2 0.00 0.00 0.00 47 1010.2
20260905190441 36 63 8.0 11.3 0.00 0.00 0.00 46 1010.3
20260905185940 36 45 4.8 6.4 0.00 0.00 0.00 48 1010.3
20260905185435 35 37 0.0 1.6 0.00 0.00 0.00 51 1010.5
20260905184933 35 93 3.2 3.2 0.00 0.00 0.00 56 1010.4
20260905184423 35 86 3.2 3.2 0.00 0.00 0.00 54 1010.4
20260905183922 35 48 3.2 4.8 0.00 0.00 0.00 55 1010.5
20260905183416 35 18 8.0 9.7 0.00 0.00 0.00 52 1010.7
20260905182911 35 69 8.0 11.3 0.00 0.00 0.00 52 1010.5
20260905182410 36 16 9.7 12.9 0.00 0.00 0.00 51 1010.6
20260905181906 36 22 6.4 9.7 0.00 0.00 0.00 50 1010.5
20260905181401 36 359 4.8 4.8 0.00 0.00 0.00 49 1010.6
20260905180900 37 184 6.4 9.7 0.00 0.00 0.00 45 1010.9
20260905180355 36 148 4.8 4.8 0.00 0.00 0.00 47 1010.8
20260905175850 36 167 3.2 3.2 0.00 0.00 0.00 49 1010.8
20260905175349 35 173 3.2 3.2 0.00 0.00 0.00 50 1011.0
20260905174844 35 124 1.6 3.2 0.00 0.00 0.00 50 1011.0
20260905174340 35 17 6.4 6.4 0.00 0.00 0.00 50 1010.9
20260905173831 36 56 3.2 4.8 0.00 0.00 0.00 51 1011.0
20260905173327 36 73 6.4 6.4 0.00 0.00 0.00 49 1011.0
20260905172827 37 53 12.9 14.5 0.00 0.00 0.00 48 1011.0
20260905172324 35 68 6.4 6.4 0.00 0.00 0.00 51 1011.0
20260905171821 35 114 6.4 9.7 0.00 0.00 0.00 52 1011.4
20260905171317 36 19 1.6 1.6 0.00 0.00 0.00 50 1011.1
20260905170814 35 352 4.8 4.8 0.00 0.00 0.00 52 1011.1
20260905170309 36 312 9.7 11.3 0.00 0.00 0.00 52 1011.3
20260905165807 36 197 3.2 4.8 0.00 0.00 0.00 50 1011.2
20260905165306 36 309 1.6 3.2 0.00 0.00 0.00 52 1011.3
20260905164757 36 0 3.2 4.8 0.00 0.00 0.00 51 1011.4
20260905164252 36 38 3.2 4.8 0.00 0.00 0.00 53 1011.7
20260905163748 36 19 4.8 4.8 0.00 0.00 0.00 52 1011.6
20260905163244 35 8 3.2 4.8 0.00 0.00 0.00 55 1011.6
20260905162740 35 356 6.4 6.4 0.00 0.00 0.00 54 1011.7
20260905162239 35 56 4.8 4.8 0.00 0.00 0.00 53 1011.6
20260905161734 35 7 4.8 6.4 0.00 0.00 0.00 55 1011.5
20260905161232 35 353 4.8 4.8 0.00 0.00 0.00 55 1011.8
20260905160731 35 39 0.0 1.6 0.00 0.00 0.00 56 1011.8
20260905160226 35 17 3.2 6.4 0.00 0.00 0.00 58 1012.0
20260905155726 35 14 3.2 4.8 0.00 0.00 0.00 58 1011.8
20260905155220 34 328 9.7 11.3 0.00 0.00 0.00 59 1011.8
20260905154713 35 4 3.2 4.8 0.00 0.00 0.00 59 1012.0
20260905154203 34 348 1.6 3.2 0.00 0.00 0.00 59 1011.8
20260905153659 33 2 1.6 1.6 0.00 0.00 0.00 59 1012.2
20260905153154 33 75 4.8 4.8 0.00 0.00 0.00 60 1011.9
20260905152649 33 335 4.8 4.8 0.00 0.00 0.00 62 1012.0
20260905152143 33 26 4.8 6.4 0.00 0.00 0.00 62 1011.9
20260905151638 33 51 1.6 3.2 0.00 0.00 0.00 61 1012.1
20260905151128 33 346 4.8 4.8 0.00 0.00 0.00 64 1012.1
20260905150624 33 7 0.0 1.6 0.00 0.00 0.00 64 1012.1
20260905150122 32 19 3.2 3.2 0.00 0.00 0.00 66 1012.0
20260905145621 32 325 4.8 4.8 0.00 0.00 0.00 68 1012.0
20260905145120 32 1 1.6 1.6 0.00 0.00 0.00 68 1012.1
20260905144620 33 347 1.6 3.2 0.00 0.00 0.00 66 1011.9
20260905144120 32 344 1.6 1.6 0.00 0.00 0.00 69 1011.9
20260905143620 31 353 1.6 1.6 0.00 0.00 0.00 71 1012.0
20260905143114 31 4 1.6 3.2 0.00 0.00 0.00 72 1011.9
20260905142614 31 24 3.2 3.2 0.00 0.00 0.00 72 1011.8
20260905142113 31 30 1.6 1.6 0.00 0.00 0.00 71 1011.9
20260905141613 30 36 0.0 0.0 0.00 0.00 0.00 72 1012.0
20260905141110 30 352 3.2 3.2 0.00 0.00 0.00 74 1012.0
20260905140605 30 233 1.6 1.6 0.00 0.00 0.00 76 1012.1
20260905140104 30 350 1.6 1.6 0.00 0.00 0.00 77 1011.9
20260905135559 30 249 0.0 1.6 0.00 0.00 0.00 76 1011.9
20260905135054 28 250 1.6 1.6 0.00 0.00 0.00 79 1011.8
20260905134548 28 250 1.6 3.2 0.00 0.00 0.00 81 1011.7
20260905134047 28 248 3.2 3.2 0.00 0.00 0.00 82 1012.0
20260905133542 27 248 3.2 4.8 0.00 0.00 0.00 83 1011.9
20260905133036 27 248 6.4 6.4 0.00 0.00 0.00 84 1011.8
20260905132531 27 273 3.2 4.8 0.00 0.00 0.00 85 1012.0
20260905132026 27 273 4.8 4.8 0.00 0.00 0.00 85 1011.9
20260905131521 27 323 0.0 1.6 0.00 0.00 0.00 84 1011.7
20260905131016 27 323 1.6 3.2 0.00 0.00 0.00 87 1011.7
20260905130515 26 323 0.0 0.0 0.00 0.00 0.00 87 1011.7
20260905130010 26 323 0.0 1.6 0.00 0.00 0.00 88 1011.8
20260905125459 26 323 0.0 0.0 0.00 0.00 0.00 89 1011.7
20260905124955 26 323 0.0 0.0 0.00 0.00 0.00 91 1011.8
20260905124451 25 323 0.0 0.0 0.00 0.00 0.00 92 1011.7
20260905123947 25 323 0.0 0.0 0.00 0.00 0.00 94 1011.7
20260905123443 24 323 0.0 0.0 0.00 0.00 0.00 96 1011.6